Regional Weather Roundup
Issued by NWS

Home | Current Version | Previous Version | Graphics & Text | Print | Product List | Glossary On
Versions: 1 2 3 4 5 6 7 8 9 10 11 12 13 14 15 16 17 18 19 20 21 22 23 24 25 26 27
000
ASUS45 KBOU 151306
RWRCO

WEATHER ROUNDUP FOR COLORADO
NATIONAL WEATHER SERVICE DENVER/BOULDER CO
700 AM MDT TUE APR 15 2014

NOTE: "FAIR" INDICATES FEW OR NO CLOUDS BELOW 12000 FEET WITH NO
SIGNIFICANT WEATHER AND/OR OBSTRUCTIONS TO VISIBILITY.

COZ001>005-013-030-031-151400-
...NORTHWEST COLORADO...

CITY           SKY/WX    TMP DP  RH WIND       PRES   REMARKS
CRAIG          PTCLDY    20  17  88 CALM      30.14F
HAYDEN         CLEAR     21  16  79 E12       30.15F WCI   9
MEEKER         CLEAR     24  18  77 NE3       30.16F
MOUNT WERNER   CLEAR     23  10  58 S14       30.15S WCI  11
STEAMBOAT SPGS CLEAR     17  16  93 CALM      30.16S
WALDEN         CLEAR     18   9  68 SE9       30.10S WCI   6
$$

COZ006>008-011-151400-
...WEST CENTRAL VALLEYS...

CITY           SKY/WX    TMP DP  RH WIND       PRES   REMARKS
GRAND JUNCTION CLEAR     31  21  66 E13       30.18F WCI  21
MONTROSE       PTCLDY    27  18  69 S8        30.24R WCI  19
EAGLE          PTCLDY    21  18  86 CALM      30.24S
RIFLE          CLEAR     25  20  81 CALM      30.22S
DELTA          PTCLDY    28  22  77 CALM      30.23S
NUCLA            N/A     27  19  74 SE6       30.24S WCI  20
$$

COZ017>023-064>068-151400-
...SOUTHWEST COLORADO...

CITY           SKY/WX    TMP DP  RH WIND       PRES   REMARKS
DURANGO        PTCLDY    17   4  56 N5        30.19S WCI  10
CORTEZ         CLEAR     18  13  80 NE7       30.20R WCI   9
PAGOSA SPRINGS PTCLDY    21  10  63 CALM      30.20R
TELLURIDE      CLEAR     21   9  58 SE7       30.21R WCI  13
WOLF CREEK PAS CLEAR     21  -4  33 SW14      30.20F WCI   8
$$

COZ009-010-012-014-032>034-037-058>063-151400-
...CENTRAL COLORADO...

CITY           SKY/WX    TMP DP  RH WIND       PRES   REMARKS
ASPEN          PTCLDY    19  12  74 CALM      30.18F
BUENA VISTA    PTCLDY    20  12  71 CALM      30.16S
COPPER MTN     PTCLDY    18   5  57 SW12G18   30.15F WCI   5
BERTHOUD PASS  FAIR       9   0  66 NW39G46   30.06S HAZE    WCI -17
COTTONWOOD PAS PTCLDY    28   7  40 NW6       30.14S WCI  22
GUNNISON       CLEAR     16   9  73 CALM      30.26S
KREMMLING      PTCLDY    14  10  85 E3        30.21S
LEADVILLE      PTCLDY    10   3  73 E6        30.15F WCI   0
MONARCH PASS   PTCLDY    12   3  67 W29       30.25S WCI  -9
SALIDA         PTCLDY    31   8  38 NW9       30.22S WCI  22
SUNLIGHT       CLEAR     21  14  73 CALM      30.20S
WILKERSON PASS MOCLDY    21   5  49 W14G24    30.14R WCI   8
$$

COZ069>075-151400-
...SAN LUIS VALLEY/SANGRE DE CRISTO MOUNTAINS...

CITY           SKY/WX    TMP DP  RH WIND       PRES   REMARKS
ALAMOSA        PTCLDY    20  16  84 W3        30.19R
LA VETA PASS   CLEAR     21   1  42 SW16G26   30.12S WCI   7
SAGUACHE       PTCLDY    21   3  45 NW13      30.19S WCI   9
$$

COZ035-036-038>040-151400-
...NORTHERN COLORADO FRONT RANGE...

CITY           SKY/WX    TMP DP  RH WIND       PRES   REMARKS
DENVER INTL AP PTCLDY    35  17  47 SW15      29.99F WCI  25
DMNS CITY PARK   N/A     38  14  38 S7        29.99F
AURORA         PTCLDY    32  18  55 S13       30.01S WCI  22
FRONT RANGE AP NOT AVBL
ERIE MUNI ARPT PTCLDY    35  20  53 CALM      29.98S
BOULDER MUN AP PTCLDY    46  14  27 W18       29.96F
CENTENNIAL     PTCLDY    36  14  40 SW8       30.01F
BROOMFIELD     PTCLDY    39  14  35 SE3       29.99F
FORT COLLINS   CLEAR     27  21  80 N3        29.99F
LONGMONT       CLEAR     30  25  81 CALM      29.98F
$$

COZ041-046-047-076>085-087-088-151400-
...PIKES PEAK/PALMER DIVIDE AND SOUTHERN FOOTHILLS...

CITY           SKY/WX    TMP DP  RH WIND       PRES   REMARKS
COLO. SPRINGS  MOCLDY    28  19  69 N6        30.05F WCI  22
A. F. ACADEMY  PTCLDY    23  16  74 VRB1      30.04F
ELLICOTT       NOT AVBL
FALCON         CLEAR     29  17  60 W6        30.05S WCI  23
FORT CARSON    PTCLDY    26  22  86 NW9       30.04F WCI  16
LIMON          CLEAR     24  20  84 N3        30.03F
MONUMENT HILL  CLEAR     30  12  47 SW12      30.03S WCI  21
TRINIDAD       CLEAR     28  21  75 W13       30.10S WCI  17
$$

COZ042>045-048>051-090-091-151400-
...NORTHEAST COLORADO...

CITY           SKY/WX    TMP DP  RH WIND       PRES   REMARKS
GREELEY ARPT   PTCLDY    21  16  79 NW3       29.99F
AKRON          CLEAR     31  20  63 SW14      29.98S WCI  21
BURLINGTON     CLEAR     29  16  58 SW13      30.05S WCI  19
WRAY           CLEAR     31  25  80 SW9       30.01F WCI  23
STERLING       CLEAR     28  27  93 SW6       29.98S WCI  22
HOLYOKE        CLEAR     27  21  80 SW3       29.99F
FORT MORGAN    CLEAR     26  23  90 W8        29.99S WCI  17
$$

COZ086-089-092>099-151400-
...SOUTHEAST COLORADO...

CITY           SKY/WX    TMP DP  RH WIND       PRES   REMARKS
PUEBLO         PTCLDY    27  24  89 W6        30.08F WCI  20
LA JUNTA       CLEAR     30  25  81 SW8       30.09F WCI  22
LAMAR          CLEAR     23  19  85 W3        30.10S
SPRINGFIELD      N/A     27  21  78 SW9       30.10F WCI  18
$$



USA.gov is the U.S. government's official web portal to all federal, state and local government web resources and services.